Wind_Speed
7 6 5 3 0 5 17 16 15 16 22 19 19 18 16 13 16 6 28 27 24 20 20 18 17 15 13 13 11 9 8 7 6 8 10 10 10 10 11 11 12 14 14 15 15 15 16 18 19
4 4 5 5 4 12 16 13 21 24 29 25 20 21 16 12 5 25 29 26 23 21 20 19 16 13 11 11 10 10 9 9 11 12 12 11 11 11 11 13 15 16 15 16 17 16 17 18 20
3 3 6 5 8 20 18 21 26 27 27 23 26 18 13 8 20 27 25 27 24 21 18 14 13 13 13 13 13 13 11 11 11 11 12 12 12 13 12 14 16 17 17 18 19 18 17 17 19
2 4 3 2 8 17 14 18 22 23 17 14 16 17 17 17 26 24 26 25 22 19 16 13 13 13 13 12 11 10 10 11 11 12 11 12 12 12 13 15 17 19 18 19 20 17 17 17 17
1 5 6 10 13 18 17 20 19 17 13 10 11 20 25 28 26 23 23 22 18 18 16 14 14 11 11 11 10 9 9 10 10 11 11 12 12 12 14 17 17 18 15 16 17 17 16 15 17
2 7 7 17 26 18 23 20 16 13 6 11 11 29 28 25 25 25 22 19 16 14 16 13 12 10 9 10 10 9 9 10 10 10 12 13 12 14 17 19 18 18 15 14 14 15 16 16 16
6 1 7 6 26 28 27 20 14 14 9 17 17 32 32 28 26 25 21 19 17 14 13 12 10 11 9 8 8 9 11 11 11 11 10 14 15 15 18 19 18 14 12 10 9 13 15 16 17
9 1 4 10 21 21 22 20 19 14 16 17 13 27 33 30 27 21 21 20 16 14 12 10 10 11 11 9 9 12 14 14 12 13 14 20 19 18 19 21 18 21 16 15 11 13 14 17 20
6 5 21 25 32 26 21 25 24 20 21 15 6 21 28 25 24 23 23 21 18 16 12 11 11 12 12 12 14 15 16 15 15 17 18 23 21 21 24 26 21 15 15 15 14 14 15 20 21
8 4 7 11 16 29 24 17 20 25 24 18 22 27 21 22 22 18 23 21 15 14 13 12 11 12 14 14 17 17 17 15 15 16 19 22 22 21 22 20 16 12 10 15 16 13 15 21 21
5 7 13 6 10 22 24 23 15 28 28 8 30 31 21 17 17 14 21 14 12 13 13 13 13 11 15 13 16 16 12 14 16 15 17 21 20 16 15 15 12 13 19 15 15 16 16 17 14
6 4 14 12 14 21 24 20 17 22 13 22 26 28 24 18 12 10 15 12 13 12 11 12 13 13 16 11 13 13 15 15 18 18 19 20 17 17 16 15 12 10 10 13 13 20 18 12 12
6 8 8 17 13 15 18 17 23 22 20 37 30 30 26 16 10 7 8 11 8 6 8 13 14 15 12 10 13 14 16 15 16 17 16 17 13 17 16 13 10 9 10 12 10 14 13 13 19
8 5 2 16 10 11 11 18 20 25 29 40 33 28 24 18 13 9 10 11 10 7 7 8 11 11 14 13 14 13 14 18 15 14 15 18 15 10 13 19 12 14 16 15 14 13 9 8 16
9 8 7 17 13 7 15 19 15 28 30 37 33 28 23 21 15 8 6 10 7 4 5 3 9 12 14 12 9 12 14 14 13 13 11 18 16 15 15 13 15 17 16 17 14 15 17 15 10
14 11 11 14 15 13 7 17 18 25 35 34 35 31 27 28 17 12 10 8 6 3 8 8 9 10 11 10 11 13 15 16 14 12 12 11 14 12 14 13 12 16 16 16 11 15 16 16 16
14 13 14 21 18 11 5 15 20 28 33 29 38 34 28 21 20 22 13 12 9 3 8 7 10 6 11 10 11 9 13 14 12 10 9 9 11 11 8 13 13 13 13 14 15 17 18 14 14
11 16 12 13 14 15 5 6 27 33 33 31 36 33 26 25 22 19 17 13 16 7 9 10 11 10 11 9 8 10 9 10 6 10 10 10 8 7 7 10 11 10 14 12 14 13 15 13 15
15 9 8 14 14 10 3 4 25 30 33 33 36 35 27 27 23 18 16 17 15 11 10 11 12 11 12 11 9 11 12 13 11 10 11 9 7 8 7 10 10 10 11 11 12 15 13 15 21
16 10 4 7 8 10 8 3 17 29 30 36 37 37 28 31 27 23 21 18 14 11 12 10 13 10 11 14 13 10 9 9 8 9 9 7 5 7 9 9 6 10 11 11 9 13 15 18 19
17 15 15 11 17 20 6 5 16 22 27 35 37 34 28 32 30 26 23 20 15 11 11 11 11 12 12 11 12 12 12 11 7 5 7 8 8 7 9 11 11 10 13 13 13 12 14 15 16
17 10 17 20 22 18 14 11 24 21 31 37 39 35 32 33 29 25 22 19 15 9 7 12 13 13 13 11 13 14 13 13 8 6 7 11 8 6 6 10 11 10 13 12 12 13 16 14 11
19 10 13 20 26 14 23 5 11 21 32 39 41 35 33 35 32 28 24 17 11 7 4 9 14 15 14 14 14 13 7 11 12 9 10 11 10 6 6 8 13 11 8 12 12 11 15 13 16
13 17 17 17 17 6 23 11 17 16 22 41 43 37 36 34 30 28 24 20 15 13 8 9 9 16 15 15 15 13 12 15 12 11 9 9 11 10 11 10 11 9 11 13 17 12 12 17 18
22 16 6 3 3 7 23 16 9 17 31 24 36 39 42 36 34 30 30 28 21 18 13 11 6 12 17 15 16 15 15 12 12 15 11 10 10 9 10 9 8 8 9 12 12 16 13 17 18
16 17 8 5 4 2 15 8 10 23 32 26 30 31 41 39 41 38 30 30 28 21 16 13 7 7 15 16 16 18 18 14 15 13 13 12 11 10 9 9 8 6 7 8 9 13 18 18 15
15 14 12 9 8 3 3 4 9 33 32 32 30 26 28 32 32 34 38 29 29 26 20 15 11 6 10 13 18 16 17 15 12 12 10 17 13 13 10 8 7 6 6 6 5 8 12 17 15
20 17 7 7 4 2 3 9 11 28 32 38 32 23 27 24 27 34 39 35 30 30 27 24 19 15 9 12 15 16 16 16 16 18 12 13 13 11 9 7 8 6 5 5 6 6 6 7 12
15 14 7 2 4 8 4 3 9 24 26 29 29 26 31 29 32 34 40 37 36 34 32 32 28 24 21 18 20 20 17 15 17 17 16 14 12 10 9 9 9 7 7 5 6 5 7 5 6
13 16 13 3 2 3 8 5 17 20 20 18 28 23 23 21 27 27 29 37 36 31 37 37 35 29 26 23 20 19 19 18 16 16 17 15 13 14 11 10 9 12 10 7 5 7 6 6 5
Wind_Direction
162 167 187 159 144 149 153 122 118 143 162 145 131 149 141 119 138 166 147 143 144 147 146 143 138 131 125 127 136 134 128 124 118 112 108 105 105 110 121 128 125 110 103 98 95 96 92 87 88
124 165 135 118 67 148 153 130 138 142 160 162 159 176 169 153 195 153 143 141 143 144 143 139 134 129 130 129 127 124 119 116 113 108 103 107 106 111 114 118 122 117 114 106 104 98 95 93 88
159 206 151 79 134 151 141 133 141 140 155 165 159 175 166 141 147 140 139 135 140 140 136 135 131 126 121 118 118 116 113 108 106 101 94 97 101 106 112 120 123 119 111 107 102 99 98 97 91
99 144 244 163 189 156 130 146 141 137 141 171 189 163 140 136 152 142 137 138 141 140 140 137 130 124 118 114 115 112 106 106 106 99 96 97 99 105 116 122 126 124 114 98 94 96 96 93 94
339 314 227 177 188 143 130 152 158 153 164 162 182 141 140 145 150 142 138 139 141 141 138 136 125 118 115 115 117 119 117 114 108 99 98 99 105 111 120 124 126 130 123 106 94 91 89 91 89
234 27 184 162 161 152 137 138 191 204 151 141 169 144 125 147 145 141 142 140 142 136 131 126 119 116 115 116 123 127 118 108 99 100 102 104 106 112 121 126 131 126 122 107 94 93 94 92 87
12 110 134 230 122 126 140 148 168 193 147 136 146 129 122 132 143 143 149 147 141 134 126 123 120 115 109 112 123 119 110 107 106 99 101 108 110 112 118 125 125 123 126 116 103 107 98 95 92
24 148 34 144 150 127 144 169 151 153 135 135 146 142 137 130 140 136 140 145 136 130 123 121 118 112 109 106 110 115 116 109 101 105 110 115 115 108 126 129 116 114 108 121 118 106 107 104 103
295 357 147 154 167 161 163 172 145 148 136 152 187 140 132 133 141 136 141 140 137 134 129 127 126 117 112 106 112 116 108 107 97 106 114 123 122 112 115 126 124 112 106 117 112 110 110 101 111
309 273 145 160 178 170 159 164 154 151 154 156 144 146 142 140 135 135 150 137 130 129 133 130 122 119 106 108 116 116 107 101 100 107 123 130 128 122 122 123 113 97 113 107 103 109 108 109 113
138 135 111 131 190 184 173 170 169 167 162 162 161 153 148 147 140 145 152 136 127 138 142 130 129 122 103 105 116 118 115 104 100 105 117 125 127 129 125 122 113 100 115 95 116 111 108 113 107
64 198 134 109 131 171 176 180 180 174 165 162 161 154 143 136 145 155 155 132 139 129 130 139 128 130 110 97 122 123 112 109 103 114 115 119 129 119 111 106 104 120 126 119 111 128 123 124 113
223 319 156 124 130 160 183 193 177 181 157 155 162 158 152 146 145 126 156 154 170 122 143 137 143 127 111 121 135 122 126 116 107 123 118 115 111 114 110 121 143 139 109 133 117 129 126 117 113
246 260 331 146 146 162 182 180 187 177 160 160 167 166 160 169 168 150 156 161 164 155 142 162 155 125 123 145 139 135 126 111 105 110 110 112 134 113 108 131 113 126 131 114 113 111 107 110 96
233 194 203 185 173 142 176 165 172 166 164 165 169 166 166 184 188 182 158 178 123 157 147 186 146 131 139 127 115 139 128 116 114 105 108 119 133 123 116 122 129 118 131 137 112 109 103 93 94
193 229 215 205 183 143 147 166 168 177 169 166 173 174 180 194 183 196 200 214 169 144 188 168 162 160 136 134 106 126 131 127 120 118 126 117 126 139 128 141 127 122 127 133 119 108 103 116 115
234 216 210 173 175 187 163 159 168 177 170 167 166 164 182 191 200 195 208 220 207 223 211 172 180 188 141 136 128 133 137 126 129 127 121 119 127 129 125 146 140 133 123 123 123 111 105 104 106
215 217 213 197 204 182 181 188 169 174 174 173 168 166 187 195 195 208 220 227 251 263 194 192 190 182 160 168 140 144 131 129 130 137 128 147 151 148 127 146 140 133 141 138 130 131 124 115 115
206 256 267 209 191 207 196 200 182 183 185 176 174 172 191 193 207 218 224 233 242 248 207 188 198 181 177 171 152 134 142 144 144 140 135 149 152 157 139 146 145 159 144 145 135 129 123 132 126
231 268 286 195 191 186 191 209 199 193 196 185 177 177 188 193 201 218 217 223 246 242 226 189 201 181 177 172 172 161 155 162 145 141 143 159 159 159 161 162 181 172 145 159 145 156 136 121 125
232 257 252 236 179 152 241 214 232 207 197 188 181 182 192 205 209 216 225 234 247 231 225 209 194 193 187 198 177 164 154 165 170 160 159 158 165 162 169 168 181 171 168 164 162 156 149 157 140
254 231 263 239 229 210 212 189 194 199 192 186 183 187 199 207 218 224 227 235 245 241 222 224 202 206 199 193 185 177 155 167 162 182 163 145 149 144 172 167 182 184 165 171 182 173 163 170 158
246 249 268 238 201 188 182 159 181 205 202 191 190 197 204 209 215 224 235 241 242 242 225 238 210 216 210 196 193 209 195 185 166 174 176 157 136 147 148 169 179 173 159 163 179 173 177 178 165
243 265 231 192 189 208 194 175 181 185 207 195 194 201 205 206 209 224 233 241 242 248 249 227 220 221 219 210 203 213 200 188 179 168 191 169 155 160 141 162 175 183 179 181 188 184 187 178 183
241 246 156 184 171 225 207 191 204 194 202 194 202 204 212 210 207 208 221 227 237 245 249 229 232 230 230 215 206 201 199 182 190 189 190 185 175 169 151 154 151 153 177 186 192 194 203 188 190
240 223 212 147 172 206 170 225 220 194 183 194 195 202 210 220 222 221 215 224 236 243 247 237 228 252 234 231 215 201 201 205 203 198 191 194 194 192 172 162 169 171 166 178 180 189 202 200 204
233 234 253 242 227 61 147 177 191 180 188 196 203 201 217 214 219 217 220 224 228 239 244 241 234 261 233 225 220 208 195 210 210 209 204 197 207 202 186 182 172 176 177 175 176 182 188 201 209
237 234 243 212 140 46 220 155 170 173 178 191 197 198 201 203 219 225 214 223 226 227 231 239 219 221 210 203 211 223 216 212 215 218 232 206 207 191 178 188 178 184 189 207 199 192 187 198 210
195 202 203 175 136 175 171 77 182 192 198 193 192 205 216 201 208 212 212 220 231 234 234 231 222 216 212 202 202 204 210 217 218 225 230 222 215 197 206 234 214 198 201 196 217 210 195 188 203
218 228 223 223 174 90 118 124 180 188 189 209 219 214 215 213 209 209 218 221 228 232 233 241 227 219 218 215 209 204 206 205 218 221 228 224 225 211 222 231 230 230 214 200 215 239 228 211 215
Height
3164 3166 3166 3169 3172 3167 3168 3170 3170 3169 3174 3176 3179 3179 3181 3181 3183 3188 3187 3189 3192 3196 3198 3199 3202 3204 3205 3205 3205 3205 3206 3207 3207 3207 3207 3207 3207 3207 3208 3208 3209 3209 3209 3209 3209 3208 3208 3208 3209
3166 3167 3168 3168 3169 3166 3170 3170 3170 3169 3171 3175 3177 3180 3181 3183 3183 3184 3186 3190 3194 3197 3200 3201 3203 3204 3205 3206 3207 3207 3208 3208 3208 3208 3208 3208 3208 3208 3209 3209 3210 3210 3210 3211 3211 3211 3210 3211 3211
3167 3167 3169 3165 3169 3170 3171 3171 3169 3172 3175 3175 3177 3181 3182 3183 3185 3187 3190 3191 3196 3199 3201 3203 3204 3204 3205 3206 3207 3208 3209 3209 3209 3209 3209 3209 3208 3209 3210 3211 3212 3213 3213 3213 3213 3213 3214 3213 3214
3167 3169 3169 3168 3168 3171 3172 3172 3171 3171 3175 3179 3178 3179 3182 3186 3187 3189 3192 3194 3197 3200 3201 3203 3205 3206 3206 3207 3209 3209 3209 3209 3209 3210 3210 3210 3209 3209 3210 3211 3213 3214 3215 3216 3217 3216 3216 3216 3217
3167 3166 3163 3163 3169 3172 3171 3173 3172 3171 3173 3176 3178 3179 3181 3188 3190 3192 3194 3197 3201 3202 3203 3205 3206 3207 3208 3208 3209 3209 3210 3210 3210 3210 3209 3211 3211 3211 3211 3213 3215 3216 3217 3218 3219 3219 3219 3219 3219
3167 3164 3161 3162 3166 3169 3172 3174 3173 3173 3175 3176 3177 3177 3182 3190 3193 3194 3197 3200 3203 3205 3205 3207 3208 3209 3209 3209 3209 3209 3210 3211 3212 3211 3211 3212 3212 3212 3214 3215 3216 3218 3219 3220 3220 3220 3221 3221 3221
3165 3165 3161 3152 3153 3165 3171 3174 3174 3174 3177 3178 3180 3177 3184 3191 3196 3197 3200 3202 3204 3206 3207 3209 3209 3210 3210 3211 3210 3210 3212 3212 3212 3212 3212 3212 3212 3213 3216 3218 3220 3220 3221 3221 3221 3221 3222 3223 3223
3165 3163 3157 3159 3163 3169 3171 3174 3174 3176 3179 3180 3183 3181 3182 3189 3195 3198 3200 3202 3205 3207 3209 3211 3211 3211 3211 3211 3211 3213 3213 3213 3213 3213 3213 3213 3214 3216 3218 3220 3222 3222 3220 3221 3223 3224 3223 3225 3225
3167 3167 3165 3168 3167 3170 3173 3174 3175 3178 3179 3183 3185 3186 3188 3189 3194 3199 3200 3204 3206 3208 3210 3212 3213 3213 3212 3213 3214 3215 3216 3215 3215 3215 3216 3215 3217 3219 3220 3221 3223 3223 3223 3223 3224 3224 3226 3225 3227
3167 3166 3168 3169 3169 3172 3174 3177 3175 3179 3181 3184 3185 3189 3190 3193 3197 3201 3204 3206 3208 3210 3212 3213 3214 3215 3214 3215 3216 3217 3218 3217 3217 3217 3217 3218 3220 3223 3223 3224 3225 3225 3226 3227 3227 3227 3227 3227 3228
3171 3164 3166 3170 3171 3173 3174 3177 3177 3177 3181 3181 3183 3188 3191 3195 3199 3204 3207 3209 3210 3212 3213 3215 3216 3216 3216 3217 3217 3218 3219 3219 3220 3221 3222 3222 3223 3225 3227 3228 3228 3229 3228 3230 3230 3230 3230 3230 3231
3169 3166 3166 3169 3171 3173 3175 3177 3178 3179 3181 3183 3188 3191 3194 3197 3202 3205 3208 3210 3212 3214 3215 3215 3216 3217 3218 3219 3220 3220 3222 3222 3223 3225 3225 3226 3225 3228 3230 3231 3231 3230 3231 3232 3233 3233 3233 3233 3232
3170 3169 3165 3168 3173 3174 3176 3177 3178 3178 3181 3186 3189 3193 3197 3200 3203 3206 3210 3211 3213 3215 3216 3218 3218 3219 3220 3221 3222 3223 3224 3224 3226 3227 3228 3228 3227 3229 3232 3232 3233 3233 3234 3234 3236 3236 3236 3235 3236
3170 3169 3165 3169 3174 3175 3176 3178 3180 3180 3183 3189 3191 3195 3199 3201 3206 3208 3212 3213 3214 3216 3218 3220 3220 3220 3222 3223 3225 3225 3225 3226 3228 3229 3231 3230 3231 3231 3233 3234 3236 3235 3236 3237 3238 3237 3238 3238 3237
3168 3168 3169 3171 3174 3175 3176 3179 3181 3182 3186 3190 3194 3198 3202 3203 3206 3210 3212 3214 3216 3216 3219 3221 3221 3223 3224 3226 3227 3228 3228 3227 3229 3231 3232 3234 3235 3236 3236 3236 3238 3239 3239 3240 3240 3240 3240 3240 3239
3168 3169 3169 3169 3174 3176 3179 3178 3180 3184 3186 3191 3195 3199 3202 3203 3206 3210 3212 3214 3217 3219 3222 3223 3223 3225 3226 3228 3228 3228 3229 3231 3231 3232 3235 3236 3237 3238 3240 3240 3240 3241 3242 3241 3242 3243 3243 3244 3243
3163 3165 3167 3165 3171 3176 3177 3178 3181 3185 3189 3192 3197 3200 3202 3204 3208 3210 3212 3216 3219 3220 3223 3223 3224 3225 3227 3228 3229 3231 3231 3232 3234 3234 3236 3237 3237 3239 3241 3241 3242 3243 3243 3244 3244 3244 3245 3246 3246
3161 3165 3167 3166 3171 3173 3177 3179 3179 3185 3188 3193 3197 3201 3203 3205 3208 3212 3213 3217 3219 3220 3223 3224 3225 3226 3228 3229 3230 3232 3232 3233 3235 3235 3237 3238 3239 3240 3241 3242 3243 3244 3245 3245 3245 3246 3246 3247 3248
3159 3165 3168 3168 3171 3172 3176 3181 3180 3184 3188 3191 3197 3201 3203 3206 3208 3210 3213 3217 3219 3221 3224 3226 3227 3228 3231 3231 3233 3233 3235 3236 3237 3238 3238 3239 3240 3240 3242 3242 3244 3245 3245 3246 3247 3248 3248 3249 3249
3160 3164 3168 3168 3169 3172 3178 3179 3183 3183 3187 3190 3195 3200 3204 3207 3209 3210 3213 3216 3218 3221 3223 3225 3227 3229 3231 3232 3234 3235 3236 3237 3239 3240 3240 3239 3242 3243 3243 3243 3244 3246 3247 3249 3250 3250 3252 3252 3251
3157 3162 3166 3167 3171 3173 3174 3179 3181 3186 3187 3190 3196 3201 3205 3206 3209 3210 3212 3215 3218 3221 3223 3225 3227 3229 3230 3232 3234 3236 3237 3238 3240 3241 3242 3242 3243 3243 3244 3245 3246 3247 3248 3249 3251 3251 3253 3254 3254
3154 3159 3164 3164 3165 3167 3171 3175 3177 3181 3185 3188 3193 3198 3202 3205 3207 3210 3213 3216 3219 3221 3223 3224 3226 3228 3230 3231 3234 3236 3237 3239 3241 3242 3243 3243 3244 3244 3245 3246 3247 3247 3248 3250 3250 3252 3253 3256 3256
3151 3157 3161 3159 3163 3164 3169 3174 3176 3175 3179 3186 3190 3194 3197 3201 3205 3209 3212 3215 3218 3220 3222 3223 3225 3226 3230 3231 3233 3235 3237 3239 3241 3243 3244 3244 3243 3245 3245 3246 3247 3248 3248 3249 3251 3252 3254 3255 3257
3152 3156 3157 3157 3164 3163 3162 3167 3172 3171 3174 3181 3188 3191 3194 3198 3203 3206 3209 3213 3216 3219 3221 3223 3224 3225 3228 3232 3232 3234 3236 3239 3241 3243 3245 3245 3243 3246 3246 3246 3247 3248 3249 3250 3251 3253 3253 3254 3257
3147 3151 3154 3161 3162 3159 3159 3164 3162 3164 3169 3177 3184 3190 3193 3195 3199 3203 3205 3208 3214 3216 3219 3222 3222 3224 3225 3229 3232 3233 3235 3238 3241 3242 3244 3244 3245 3246 3247 3248 3248 3247 3248 3250 3250 3252 3254 3253 3256
3142 3146 3148 3155 3158 3155 3157 3162 3159 3164 3170 3176 3178 3181 3186 3192 3194 3196 3201 3205 3209 3213 3217 3220 3221 3221 3223 3226 3229 3233 3235 3237 3239 3241 3242 3244 3245 3246 3247 3248 3248 3249 3249 3249 3250 3251 3252 3253 3255
3139 3142 3145 3147 3150 3154 3156 3157 3156 3159 3167 3172 3176 3180 3184 3187 3192 3194 3197 3200 3206 3210 3214 3217 3220 3221 3221 3224 3226 3230 3233 3235 3237 3238 3241 3242 3244 3245 3246 3246 3247 3249 3250 3249 3249 3250 3252 3253 3254
3133 3139 3142 3143 3148 3158 3157 3158 3156 3157 3163 3168 3173 3175 3175 3182 3187 3189 3192 3197 3201 3205 3209 3210 3216 3219 3220 3221 3224 3227 3230 3232 3234 3236 3240 3242 3243 3244 3245 3247 3247 3248 3249 3250 3251 3251 3251 3251 3253
3131 3134 3139 3141 3144 3154 3154 3158 3157 3159 3163 3166 3169 3171 3173 3175 3179 3183 3189 3193 3197 3199 3204 3207 3210 3214 3216 3217 3220 3223 3227 3230 3232 3234 3237 3239 3242 3243 3244 3246 3247 3248 3249 3249 3250 3251 3251 3251 3251
3129 3133 3136 3140 3142 3142 3146 3159 3156 3158 3162 3168 3169 3170 3171 3174 3178 3182 3186 3188 3193 3196 3198 3186 3205 3207 3212 3215 3217 3221 3224 3225 3228 3232 3234 3237 3239 3241 3242 3244 3245 3247 3247 3246 3248 3249 3250 3250 3251